Flag for Norway Weather past 2 weeks in Halden, Norway

Now
35 °F

Chilly.


Feels Like: 31 °F
Forecast: 29 / 38 °F
Wind: 5 mph from Southwest

Location: Stromtangen Fyr

Current Time: Mar 3, 2015 at 6:48:24 AM

Latest Report: Mar 3, 2015 at 6:00 AM


Visibility: N/A

Pressure: 29.41 "Hg

Humidity: 95%

Dew point: 34 °F

Location of HaldenLocation

Historic Weather in Halden — Graph

°F

Halden temperature yesterday

Maximum temperature yesterday: 40 °F (at 12:00 AM)
Minimum temperature yesterday: 36 °F (at 11:00 PM)
Average temperature yesterday: 38 °F

Past Weeks' High & Low Weather Summary

 TemperatureHumidityPressure
High43 °F (Feb 18, 5:00 AM)96% (Feb 19, 12:00 AM)30.41 "Hg (Feb 19, 12:00 AM)
Low32 °F (Feb 16, 5:00 AM)62% (Feb 22, 1:00 PM)29.00 "Hg (Feb 23, 12:00 PM)
Average38 °F88%29.60 "Hg
* Reported Feb 16 5:00 AM — Mar 3 5:00 AM, Halden, Weather by CustomWeather, © 2015

Note: Actual official high and low records may vary slightly from our data, if they occured in-between our weather recording intervals... More about our weather records

Advertising

Halden weather history for previous 24 hours

 ConditionsComfort  
Time TempWeatherWind HumidityBarometerVisibility
5:00 AM
Tue, Mar 3
35 °FChilly.5 mph95%29.41 "HgN/A
4:00 AM36 °FChilly.2 mph95%29.41 "HgN/A
3:00 AM36 °FChilly.3 mph95%29.38 "HgN/A
2:00 AM36 °FChilly.3 mph95%29.38 "HgN/A
1:00 AM36 °FChilly.3 mph95%29.35 "HgN/A
12:00 AM36 °FChilly.6 mph94%29.35 "HgN/A
11:00 PM
Mon, Mar 2
36 °FChilly.3 mph93%29.32 "HgN/A
10:00 PM36 °FChilly.2 mph92%29.32 "HgN/A
9:00 PM37 °FChilly.5 mph91%29.29 "HgN/A
8:00 PM37 °FChilly.2 mph91%29.29 "HgN/A
7:00 PM37 °FChilly.5 mph91%29.26 "HgN/A
6:00 PM37 °FChilly.6 mph91%29.26 "HgN/A
5:00 PM37 °FChilly.6 mph90%29.23 "HgN/A
4:00 PM38 °FChilly.7 mph90%29.21 "HgN/A
3:00 PM38 °FChilly.7 mph90%29.21 "HgN/A
2:00 PM38 °FChilly.9 mph90%29.18 "HgN/A
1:00 PM38 °FChilly.9 mph90%29.18 "HgN/A
12:00 PM38 °FChilly.8 mph91%29.15 "HgN/A
11:00 AM38 °FChilly.7 mph89%29.15 "HgN/A
10:00 AM38 °FChilly.7 mph88%29.15 "HgN/A
9:00 AM39 °FChilly.9 mph92%29.12 "HgN/A
8:00 AM39 °FChilly.10 mph92%29.12 "HgN/A
7:00 AM39 °FChilly.12 mph91%29.12 "HgN/A
6:00 AM40 °FChilly.12 mph90%29.09 "HgN/A
Weather by CustomWeather, © 2015

See weather overviewHow to use our weather pages